M I D A S
Marine Information and Data Acquisition System
Tripno 955 of the Zeeleeuw from 2005-08-30 05:10:28 to 2005-08-30 14:19:17
Back to CruiseResearch ActivitiesStationsMapUnderway DataData graphs

EquipmentUnitsComments
TimeDGPSUTC
LatitudeDGPSDM.mWGS84
LongitudeDGPSDM.mWGS84
SpeedMeteo Stationm/sRelative wind speed
DirectionMeteo StationdegRelative wind direction
TemperatureMeteo Stationdeg CelciusAir temperature
PressureMeteo StationPaAtmospheric pressure
HumidityMeteo Station%Relative humidity
Missing or incorrect values are displayed as -999
Metereological data collected by the RV Zeeleeuw from 2005-08-30 04:52:01 to 2005-08-30 14:26:24
Time Latitude Longitude Speed Direction Temperature Pressure Humidity
2005-08-30 04:53 51°13.615 2°56.023 0.9 239 14.6 102520 95
2005-08-30 04:54 51°13.648 2°55.929 0.9 216 14.6 102520 96
2005-08-30 04:55 51°13.695 2°55.834 1.8 209 14.7 102530 96
2005-08-30 04:56 51°13.755 2°55.734 2.3 210 14.7 102530 96
2005-08-30 04:57 51°13.83 2°55.652 1.9 171 14.8 102530 96
2005-08-30 04:58 51°13.907 2°55.638 2.5 197 15 102530 96
2005-08-30 04:59 51°13.935 2°55.64 0.6 196 15 102540 94
2005-08-30 05:00 51°13.971 2°55.542 3.3 26 14.9 102530 94
2005-08-30 05:01 51°14.101 2°55.437 4.7 22 14.9 102530 93
2005-08-30 05:02 51°14.247 2°55.272 4.4 15 14.7 102520 92
2005-08-30 05:03 51°14.376 2°55.037 4.6 11 14.5 102520 92
2005-08-30 05:04 51°14.458 2°54.708 5.3 6 14.5 102520 93
2005-08-30 05:05 51°14.544 2°54.367 5.2 11 14.6 102520 94
2005-08-30 05:06 51°14.633 2°54.025 5.4 12 14.8 102530 94
2005-08-30 05:07 51°14.711 2°53.683 5 16 15 102530 95
2005-08-30 05:08 51°14.727 2°53.314 5 9 15.3 102530 95
2005-08-30 05:09 51°14.74 2°52.945 5.2 13 15.5 102530 95
2005-08-30 05:10 51°14.749 2°52.571 4.9 16 15.6 102530 95
2005-08-30 05:11 51°14.76 2°52.194 4.8 15 15.8 102530 95
2005-08-30 05:12 51°14.771 2°51.81 4.5 14 15.9 102530 95
2005-08-30 05:13 51°14.784 2°51.426 4.9 12 16 102530 95
2005-08-30 05:14 51°14.797 2°51.041 5.2 12 16.1 102530 95
2005-08-30 05:15 51°14.809 2°50.652 5.4 12 16.2 102530 94
2005-08-30 05:16 51°14.822 2°50.264 5.1 7 16.2 102530 94
2005-08-30 05:17 51°14.83 2°49.876 5.2 3 16.3 102520 94
2005-08-30 05:18 51°14.841 2°49.484 5 1 16.4 102520 94
2005-08-30 05:19 51°14.854 2°49.097 4.9 8 16.5 102530 94
2005-08-30 05:20 51°14.867 2°48.713 5 6 16.5 102530 93
2005-08-30 05:21 51°14.88 2°48.323 5.3 10 16.6 102530 93
2005-08-30 05:22 51°14.892 2°47.936 4.9 7 16.6 102530 92
2005-08-30 05:23 51°14.905 2°47.547 4.2 8 16.7 102530 92
2005-08-30 05:24 51°14.92 2°47.166 4.1 6 16.7 102530 92
2005-08-30 05:25 51°14.934 2°46.787 4.5 11 16.8 102540 91
2005-08-30 05:26 51°14.947 2°46.407 4.8 10 16.9 102540 91
2005-08-30 05:27 51°14.964 2°46.02 4.2 5 17 102540 91
2005-08-30 05:28 51°14.978 2°45.641 4.7 2 17 102540 91
2005-08-30 05:29 51°14.991 2°45.251 4.6 7 17 102530 90
2005-08-30 05:30 51°15.006 2°44.863 5.4 3 17.1 102530 90
2005-08-30 05:31 51°15.019 2°44.475 4.9 1 17.2 102530 90
2005-08-30 05:32 51°15.033 2°44.086 5.1 358 17.2 102530 90
2005-08-30 05:33 51°15.047 2°43.698 4.6 356 17.2 102530 89
2005-08-30 05:34 51°15.06 2°43.311 5.5 360 17.2 102530 89
2005-08-30 05:35 51°15.073 2°42.922 5.1 358 17.3 102530 89
2005-08-30 05:36 51°15.085 2°42.54 4.2 357 17.3 102530 89
2005-08-30 05:37 51°15.114 2°42.158 4.6 1 17.3 102530 89
2005-08-30 05:38 51°15.148 2°41.789 4.1 3 17.3 102530 89
2005-08-30 05:39 51°15.184 2°41.424 4 4 17.4 102530 89
2005-08-30 05:40 51°15.221 2°41.06 4.7 9 17.4 102540 89
2005-08-30 05:41 51°15.272 2°40.703 4.4 18 17.5 102540 90
2005-08-30 05:42 51°15.358 2°40.565 3.9 52 17.4 102540 90
2005-08-30 05:43 51°15.405 2°40.601 4 33 17.5 102540 90
2005-08-30 05:44 51°15.425 2°40.655 3.9 25 17.4 102540 90
2005-08-30 05:45 51°15.439 2°40.715 4.4 28 17.5 102540 90
2005-08-30 05:46 51°15.439 2°40.735 2.7 19 17.5 102540 90
2005-08-30 05:47 51°15.434 2°40.727 2.7 14 17.5 102530 90
2005-08-30 05:48 51°15.428 2°40.721 3.2 21 17.5 102530 90
2005-08-30 05:49 51°15.43 2°40.738 3.8 55 17.5 102530 89
2005-08-30 05:50 51°15.444 2°40.749 3.5 71 17.5 102540 88
2005-08-30 05:51 51°15.459 2°40.757 3.7 59 17.5 102530 87
2005-08-30 05:52 51°15.464 2°40.758 3 51 17.6 102540 88
2005-08-30 05:53 51°15.458 2°40.738 3.1 49 17.6 102540 87
2005-08-30 05:54 51°15.452 2°40.719 3 61 17.6 102540 87
2005-08-30 05:55 51°15.445 2°40.699 3.3 70 17.7 102540 87
2005-08-30 05:56 51°15.44 2°40.68 3 81 17.7 102540 86
2005-08-30 05:57 51°15.435 2°40.659 3.6 92 17.6 102540 85
2005-08-30 05:58 51°15.43 2°40.639 2.8 94 17.6 102540 84
2005-08-30 05:59 51°15.427 2°40.62 3.1 95 17.7 102530 85
2005-08-30 06:00 51°15.403 2°40.588 3 104 17.8 102530 84
2005-08-30 06:01 51°15.388 2°40.564 3.7 62 17.8 102530 84
2005-08-30 06:02 51°15.376 2°40.532 3.1 62 17.8 102540 84
2005-08-30 06:03 51°15.362 2°40.496 2.8 69 17.7 102530 83
2005-08-30 06:04 51°15.345 2°40.461 3.3 70 17.7 102530 83
2005-08-30 06:05 51°15.339 2°40.445 4.2 36 17.6 102530 82
2005-08-30 06:06 51°15.343 2°40.464 4.5 31 17.6 102530 82
2005-08-30 06:07 51°15.345 2°40.473 4 28 17.6 102530 81
2005-08-30 06:08 51°15.345 2°40.483 4.9 29 17.7 102530 82
2005-08-30 06:09 51°15.359 2°40.547 5.8 23 17.7 102530 82
2005-08-30 06:10 51°15.381 2°40.632 5.4 21 17.7 102530 82
2005-08-30 06:11 51°15.388 2°40.688 4.6 17 17.7 102530 82
2005-08-30 06:12 51°15.393 2°40.735 4.9 44 17.7 102540 82
2005-08-30 06:13 51°15.418 2°40.759 4.8 57 17.7 102530 83
2005-08-30 06:14 51°15.442 2°40.764 3.8 73 17.6 102530 82
2005-08-30 06:15 51°15.458 2°40.766 4 66 17.6 102530 82
2005-08-30 06:16 51°15.457 2°40.753 3.7 70 17.6 102540 83
2005-08-30 06:17 51°15.451 2°40.733 4 79 17.5 102540 83
2005-08-30 06:18 51°15.443 2°40.71 4 97 17.5 102540 82
2005-08-30 06:19 51°15.446 2°40.698 4.7 63 17.6 102540 82
2005-08-30 06:20 51°15.455 2°40.704 4.9 43 17.5 102540 82
2005-08-30 06:21 51°15.465 2°40.73 5.3 36 17.5 102540 83
2005-08-30 06:22 51°15.472 2°40.757 5 30 17.5 102540 82
2005-08-30 06:23 51°15.472 2°40.775 4.6 19 17.5 102540 83
2005-08-30 06:24 51°15.467 2°40.77 4 14 17.5 102550 83
2005-08-30 06:25 51°15.461 2°40.761 3.7 13 17.6 102540 83
2005-08-30 06:26 51°15.454 2°40.749 3.6 19 17.6 102540 83
2005-08-30 06:27 51°15.448 2°40.736 3.6 24 17.6 102540 82
2005-08-30 06:28 51°15.441 2°40.721 4.2 30 17.6 102540 82
2005-08-30 06:29 51°15.435 2°40.703 3.9 39 17.5 102540 81
2005-08-30 06:30 51°15.429 2°40.684 4.1 58 17.5 102540 83
2005-08-30 06:31 51°15.424 2°40.663 3.6 70 17.4 102550 82
2005-08-30 06:32 51°15.417 2°40.642 4 83 17.4 102550 82
2005-08-30 06:33 51°15.41 2°40.622 3.6 89 17.4 102550 83
2005-08-30 06:34 51°15.403 2°40.601 3.8 100 17.5 102560 83
2005-08-30 06:35 51°15.396 2°40.582 3.7 106 17.5 102560 83
2005-08-30 06:36 51°15.394 2°40.563 4.1 98 17.6 102560 83
2005-08-30 06:37 51°15.416 2°40.577 5 42 17.6 102560 83
2005-08-30 06:38 51°15.426 2°40.611 4.8 29 17.5 102560 83
2005-08-30 06:39 51°15.429 2°40.649 5.3 25 17.4 102550 83
2005-08-30 06:40 51°15.432 2°40.691 4.9 40 17.4 102550 83
2005-08-30 06:41 51°15.443 2°40.728 5.6 52 17.3 102550 83
2005-08-30 06:42 51°15.455 2°40.763 4.8 43 17.3 102550 84
2005-08-30 06:43 51°15.463 2°40.787 4.3 66 17.3 102550 84
2005-08-30 06:44 51°15.469 2°40.791 3.5 77 17.3 102550 84
2005-08-30 06:45 51°15.473 2°40.787 4.1 85 17.3 102550 85
2005-08-30 06:46 51°15.471 2°40.776 4.1 94 17.3 102560 85
2005-08-30 06:47 51°15.5 2°40.782 4.8 72 17.4 102560 86
2005-08-30 06:48 51°15.536 2°40.804 4.8 66 17.3 102560 85
2005-08-30 06:49 51°15.546 2°40.808 4.3 60 17.3 102560 85
2005-08-30 06:50 51°15.55 2°40.812 3.9 41 17.3 102560 84
2005-08-30 06:51 51°15.549 2°40.818 4 31 17.3 102550 84
2005-08-30 06:52 51°15.544 2°40.827 4 19 17.4 102550 85
2005-08-30 06:53 51°15.538 2°40.829 3.8 12 17.4 102550 85
2005-08-30 06:54 51°15.532 2°40.826 3.6 8 17.5 102560 85
2005-08-30 06:55 51°15.526 2°40.821 3.6 11 17.5 102550 85
2005-08-30 06:56 51°15.52 2°40.812 3.9 6 17.5 102550 85
2005-08-30 06:57 51°15.513 2°40.801 3.8 357 17.5 102560 84
2005-08-30 06:58 51°15.507 2°40.787 3.7 348 17.5 102560 84
2005-08-30 06:59 51°15.5 2°40.772 3.4 330 17.5 102550 84
2005-08-30 07:00 51°15.494 2°40.755 3.9 319 17.5 102560 83
2005-08-30 07:01 51°15.49 2°40.735 3.6 307 17.6 102560 83
2005-08-30 07:02 51°15.488 2°40.715 3.8 301 17.6 102560 84
2005-08-30 07:03 51°15.486 2°40.696 4 290 17.7 102550 83
2005-08-30 07:04 51°15.484 2°40.679 3.7 280 17.7 102550 83
2005-08-30 07:05 51°15.481 2°40.663 4.4 270 17.7 102550 83
2005-08-30 07:06 51°15.477 2°40.647 3.9 264 17.7 102550 82
2005-08-30 07:07 51°15.474 2°40.631 2.9 260 17.7 102550 82
2005-08-30 07:08 51°15.47 2°40.615 2.9 257 17.7 102550 82
2005-08-30 07:09 51°15.465 2°40.601 2.9 257 17.7 102550 82
2005-08-30 07:10 51°15.461 2°40.584 3.1 258 17.7 102550 81
2005-08-30 07:11 51°15.457 2°40.568 2.9 258 17.7 102550 81
2005-08-30 07:12 51°15.453 2°40.552 3 259 17.8 102550 81
2005-08-30 07:13 51°15.45 2°40.538 3.8 265 17.8 102550 82
2005-08-30 07:14 51°15.447 2°40.522 4.2 266 17.8 102560 81
2005-08-30 07:15 51°15.444 2°40.507 4 266 17.8 102560 81
2005-08-30 07:16 51°15.44 2°40.492 3.3 260 17.9 102560 81
2005-08-30 07:17 51°15.438 2°40.474 3.2 259 17.9 102550 82
2005-08-30 07:18 51°15.435 2°40.459 4 264 18 102550 82
2005-08-30 07:19 51°15.432 2°40.443 4.4 265 18 102550 82
2005-08-30 07:20 51°15.429 2°40.427 4.2 263 18 102550 81
2005-08-30 07:21 51°15.425 2°40.412 4.4 266 18 102550 81
2005-08-30 07:22 51°15.422 2°40.395 3.6 269 18 102550 80
2005-08-30 07:23 51°15.408 2°40.377 4.3 282 18 102550 80
2005-08-30 07:24 51°15.383 2°40.357 3.8 276 18.1 102550 81
2005-08-30 07:25 51°15.362 2°40.343 4 279 18.2 102550 81
2005-08-30 07:26 51°15.344 2°40.331 5.2 275 18.2 102550 81
2005-08-30 07:27 51°15.328 2°40.32 3.9 275 18.2 102550 80
2005-08-30 07:28 51°15.313 2°40.312 4.1 287 18.3 102550 81
2005-08-30 07:29 51°15.279 2°40.332 5.6 339 18.3 102550 80
2005-08-30 07:30 51°15.284 2°40.458 7.8 31 18.2 102550 80
2005-08-30 07:31 51°15.354 2°40.576 7.3 39 18 102550 79
2005-08-30 07:32 51°15.41 2°40.676 6.5 33 17.8 102550 79
2005-08-30 07:33 51°15.445 2°40.751 5.6 38 17.7 102550 78
2005-08-30 07:34 51°15.473 2°40.812 5.2 35 17.7 102550 80
2005-08-30 07:35 51°15.486 2°40.844 4.4 47 17.7 102550 80
2005-08-30 07:36 51°15.48 2°40.824 3.8 53 17.7 102550 80
2005-08-30 07:37 51°15.471 2°40.799 4 64 17.7 102560 79
2005-08-30 07:38 51°15.47 2°40.799 4.7 45 17.8 102550 80
2005-08-30 07:39 51°15.474 2°40.804 4.3 53 17.7 102560 79
2005-08-30 07:40 51°15.478 2°40.805 4.2 51 17.8 102550 80
2005-08-30 07:41 51°15.481 2°40.805 4.3 53 17.8 102550 80
2005-08-30 07:42 51°15.482 2°40.803 4.2 52 17.8 102550 80
2005-08-30 07:43 51°15.482 2°40.8 4.4 46 17.8 102550 80
2005-08-30 07:44 51°15.481 2°40.798 4.1 37 17.8 102550 80
2005-08-30 07:45 51°15.48 2°40.795 4.4 28 17.8 102560 80
2005-08-30 07:46 51°15.48 2°40.796 4.9 21 17.8 102560 79
2005-08-30 07:47 51°15.48 2°40.797 4.6 17 17.8 102560 78
2005-08-30 07:48 51°15.48 2°40.798 4.5 23 18 102560 78
2005-08-30 07:49 51°15.481 2°40.798 4.3 23 18 102550 77
2005-08-30 07:50 51°15.482 2°40.797 4.2 23 18 102560 77
2005-08-30 07:51 51°15.482 2°40.797 3.6 30 18.1 102560 78
2005-08-30 07:52 51°15.483 2°40.798 4.4 31 18.1 102560 77
2005-08-30 07:53 51°15.484 2°40.799 4 33 18 102560 77
2005-08-30 07:54 51°15.483 2°40.8 3.8 23 18 102560 78
2005-08-30 07:55 51°15.483 2°40.8 3.9 16 18 102560 78
2005-08-30 07:56 51°15.483 2°40.8 3.7 10 18.1 102560 78
2005-08-30 07:57 51°15.483 2°40.8 3.9 7 18.2 102560 78
2005-08-30 07:58 51°15.482 2°40.799 3.7 2 18.2 102560 78
2005-08-30 07:59 51°15.48 2°40.8 3.8 1 18.2 102560 78
2005-08-30 08:00 51°15.48 2°40.799 3.4 355 18.3 102560 78
2005-08-30 08:01 51°15.479 2°40.8 3.5 354 18.4 102560 79
2005-08-30 08:02 51°15.479 2°40.8 3.7 357 18.4 102560 79
2005-08-30 08:03 51°15.479 2°40.801 3.9 360 18.5 102560 79
2005-08-30 08:04 51°15.479 2°40.801 4 4 18.5 102560 77
2005-08-30 08:05 51°15.479 2°40.8 3.6 2 18.4 102560 77
2005-08-30 08:06 51°15.479 2°40.8 3.5 354 18.5 102560 77
2005-08-30 08:07 51°15.48 2°40.799 3.8 360 18.5 102560 77
2005-08-30 08:08 51°15.48 2°40.8 3.8 352 18.5 102570 77
2005-08-30 08:09 51°15.48 2°40.801 4.7 347 18.5 102560 78
2005-08-30 08:10 51°15.479 2°40.802 4.3 342 18.5 102560 76
2005-08-30 08:11 51°15.479 2°40.803 3.9 339 18.6 102560 75
2005-08-30 08:12 51°15.478 2°40.804 3.9 334 18.6 102560 75
2005-08-30 08:13 51°15.478 2°40.805 3.9 335 18.7 102560 75
2005-08-30 08:14 51°15.478 2°40.806 3.4 324 18.7 102560 75
2005-08-30 08:15 51°15.478 2°40.808 3.9 322 18.7 102560 75
2005-08-30 08:16 51°15.477 2°40.809 3.6 321 18.7 102550 75
2005-08-30 08:17 51°15.478 2°40.808 4.1 317 18.7 102560 75
2005-08-30 08:18 51°15.478 2°40.808 4.1 42 18.7 102560 75
2005-08-30 08:19 51°15.479 2°40.807 4.1 317 18.7 102560 75
2005-08-30 08:20 51°15.48 2°40.806 4.5 312 18.7 102560 75
2005-08-30 08:21 51°15.481 2°40.806 3.6 307 18.7 102560 75
2005-08-30 08:22 51°15.481 2°40.806 4.5 307 18.7 102560 75
2005-08-30 08:23 51°15.481 2°40.806 4.7 304 18.7 102560 76
2005-08-30 08:24 51°15.481 2°40.808 4 302 18.7 102560 76
2005-08-30 08:25 51°15.481 2°40.809 4.2 301 18.8 102560 76
2005-08-30 08:26 51°15.48 2°40.811 4.3 296 18.8 102560 76
2005-08-30 08:27 51°15.48 2°40.812 3.8 293 18.8 102550 76
2005-08-30 08:28 51°15.48 2°40.812 4.2 294 18.9 102550 76
2005-08-30 08:29 51°15.481 2°40.811 3.9 292 18.9 102550 76
2005-08-30 08:30 51°15.482 2°40.811 3.4 283 18.9 102550 76
2005-08-30 08:31 51°15.483 2°40.81 3.6 282 19 102560 76
2005-08-30 08:32 51°15.483 2°40.81 3.8 273 19 102560 77
2005-08-30 08:33 51°15.484 2°40.81 3.6 280 19 102560 77
2005-08-30 08:34 51°15.484 2°40.811 3.6 282 19.1 102560 78
2005-08-30 08:35 51°15.483 2°40.811 4.4 288 19.1 102560 77
2005-08-30 08:36 51°15.482 2°40.811 4.2 286 19.1 102560 77
2005-08-30 08:37 51°15.481 2°40.812 4.5 289 19.1 102560 77
2005-08-30 08:38 51°15.481 2°40.812 3.7 290 19 102560 76
2005-08-30 08:39 51°15.481 2°40.812 4.3 296 19 102560 76
2005-08-30 08:40 51°15.482 2°40.811 4.3 293 19 102550 75
2005-08-30 08:41 51°15.48 2°40.811 3.9 298 19.1 102550 75
2005-08-30 08:42 51°15.48 2°40.821 4 323 19.1 102550 76
2005-08-30 08:43 51°15.482 2°40.83 3.9 330 19.1 102550 75
2005-08-30 08:44 51°15.485 2°40.838 3.9 339 19.1 102550 74
2005-08-30 08:45 51°15.49 2°40.845 4 2 19.1 102560 75
2005-08-30 08:46 51°15.495 2°40.851 4.2 13 19.1 102560 75
2005-08-30 08:47 51°15.499 2°40.858 3.4 13 19.1 102560 75
2005-08-30 08:48 51°15.503 2°40.864 3.8 18 19.1 102560 76
2005-08-30 08:49 51°15.507 2°40.87 3.8 17 19 102560 76
2005-08-30 08:50 51°15.512 2°40.875 3.4 15 19 102560 76
2005-08-30 08:51 51°15.531 2°40.899 5.1 46 19 102550 77
2005-08-30 08:52 51°15.598 2°40.865 2.6 105 18.9 102550 77
2005-08-30 08:53 51°15.61 2°40.68 1.5 66 18.7 102560 78
2005-08-30 08:54 51°15.593 2°40.452 0.7 7 18.8 102560 78
2005-08-30 08:55 51°15.513 2°40.26 2.8 306 18.8 102560 78
2005-08-30 08:56 51°15.429 2°40.101 1.2 270 18.9 102550 78
2005-08-30 08:57 51°15.399 2°39.993 2.1 175 19.1 102560 78
2005-08-30 08:58 51°15.399 2°39.921 3.2 148 19.1 102560 76
2005-08-30 08:59 51°15.418 2°39.861 3.5 121 19 102560 76
2005-08-30 09:00 51°15.445 2°39.821 3.9 115 19 102560 77
2005-08-30 09:01 51°15.47 2°39.796 3.8 114 19 102550 78
2005-08-30 09:02 51°15.491 2°39.78 4 111 19 102550 78
2005-08-30 09:03 51°15.53 2°39.774 4.9 50 19 102550 78
2005-08-30 09:04 51°15.589 2°39.847 6.5 23 18.9 102540 79
2005-08-30 09:05 51°15.642 2°39.945 5.6 21 18.8 102540 79
2005-08-30 09:06 51°15.676 2°40.024 5.1 11 18.8 102540 79
2005-08-30 09:07 51°15.704 2°40.094 5.2 16 18.9 102540 79
2005-08-30 09:08 51°15.733 2°40.159 5.1 19 18.9 102550 80
2005-08-30 09:09 51°15.764 2°40.224 5.6 23 18.9 102550 80
2005-08-30 09:10 51°15.794 2°40.287 5 17 18.9 102550 80
2005-08-30 09:11 51°15.822 2°40.351 4.8 14 19 102550 80
2005-08-30 09:12 51°15.849 2°40.413 5 15 19 102550 80
2005-08-30 09:13 51°15.876 2°40.474 4.8 16 19 102560 80
2005-08-30 09:14 51°15.902 2°40.538 5.6 18 19 102550 80
2005-08-30 09:15 51°15.927 2°40.602 4.9 13 19 102550 79
2005-08-30 09:16 51°15.951 2°40.666 5.1 14 19 102560 79
2005-08-30 09:17 51°15.977 2°40.73 4.5 17 19 102560 79
2005-08-30 09:18 51°16.005 2°40.794 4.8 17 19.1 102560 79
2005-08-30 09:19 51°16.032 2°40.856 4.8 21 19 102560 79
2005-08-30 09:20 51°16.059 2°40.918 4.4 15 19.1 102550 79
2005-08-30 09:21 51°16.086 2°40.982 4.9 15 19.1 102560 80
2005-08-30 09:22 51°16.114 2°41.045 4.6 16 19.1 102550 80
2005-08-30 09:23 51°16.14 2°41.107 4.8 15 19.1 102560 79
2005-08-30 09:24 51°16.167 2°41.169 4.3 13 19.1 102560 79
2005-08-30 09:25 51°16.195 2°41.232 4.6 15 19.2 102560 80
2005-08-30 09:26 51°16.225 2°41.292 4.3 19 19.2 102560 80
2005-08-30 09:27 51°16.258 2°41.35 4.5 15 19.2 102560 80
2005-08-30 09:28 51°16.291 2°41.406 5.1 15 19.2 102560 80
2005-08-30 09:29 51°16.322 2°41.465 4.7 10 19.2 102560 80
2005-08-30 09:30 51°16.35 2°41.525 4.8 10 19.2 102560 80
2005-08-30 09:31 51°16.379 2°41.588 4.8 11 19.2 102560 80
2005-08-30 09:32 51°16.41 2°41.646 4.6 21 19.2 102560 80
2005-08-30 09:33 51°16.447 2°41.691 4.4 30 19.2 102560 80
2005-08-30 09:34 51°16.49 2°41.724 4.4 42 19.1 102560 80
2005-08-30 09:35 51°16.535 2°41.753 4.4 37 19 102560 81
2005-08-30 09:36 51°16.58 2°41.784 4.1 30 18.8 102560 82
2005-08-30 09:37 51°16.623 2°41.818 4.5 26 18.8 102550 83
2005-08-30 09:38 51°16.667 2°41.853 4.7 30 18.8 102550 83
2005-08-30 09:39 51°16.711 2°41.888 4.7 36 18.8 102560 83
2005-08-30 09:40 51°16.755 2°41.918 4.6 41 18.8 102560 83
2005-08-30 09:41 51°16.801 2°41.941 4.4 44 18.7 102550 83
2005-08-30 09:42 51°16.847 2°41.959 4.5 48 18.7 102560 84
2005-08-30 09:43 51°16.891 2°41.977 4.1 47 18.7 102560 84
2005-08-30 09:44 51°16.933 2°41.995 4.4 48 18.7 102560 85
2005-08-30 09:45 51°16.977 2°42.017 4.2 47 18.7 102560 85
2005-08-30 09:46 51°17.021 2°42.038 4.5 44 18.7 102560 85
2005-08-30 09:47 51°17.068 2°42.064 4.2 36 18.7 102560 85
2005-08-30 09:48 51°17.117 2°42.096 4.9 31 18.7 102550 85
2005-08-30 09:49 51°17.155 2°42.126 4.3 30 18.7 102550 85
2005-08-30 09:50 51°17.186 2°42.152 4.6 34 18.8 102550 85
2005-08-30 09:51 51°17.213 2°42.175 4.3 35 18.8 102550 85
2005-08-30 09:52 51°17.237 2°42.194 3.8 42 18.8 102550 84
2005-08-30 09:53 51°17.257 2°42.209 4.3 52 18.8 102550 85
2005-08-30 09:54 51°17.282 2°42.217 4.6 81 18.7 102550 85
2005-08-30 09:55 51°17.31 2°42.182 3.2 140 18.8 102560 85
2005-08-30 09:56 51°17.287 2°42.122 1.3 235 18.8 102560 85
2005-08-30 09:57 51°17.244 2°42.053 1.7 179 19 102560 85
2005-08-30 09:58 51°17.22 2°41.999 1.3 202 19.3 102560 85
2005-08-30 09:59 51°17.192 2°41.951 1.7 206 19.5 102560 83
2005-08-30 10:00 51°17.163 2°41.9 1.6 183 19.5 102560 81
2005-08-30 10:01 51°17.139 2°41.844 1.1 178 19.7 102560 82
2005-08-30 10:02 51°17.118 2°41.788 1.9 173 19.7 102550 79
2005-08-30 10:03 51°17.097 2°41.735 2.1 177 19.5 102550 80
2005-08-30 10:04 51°17.075 2°41.683 1.5 179 19.4 102550 80
2005-08-30 10:05 51°17.054 2°41.63 2.5 171 19.4 102550 80
2005-08-30 10:06 51°17.031 2°41.576 2.1 171 19.3 102550 81
2005-08-30 10:07 51°17.009 2°41.523 2.2 169 19.3 102550 81
2005-08-30 10:08 51°16.986 2°41.469 2.1 173 19.4 102550 81
2005-08-30 10:09 51°16.964 2°41.414 2.1 185 19.4 102550 81
2005-08-30 10:10 51°16.94 2°41.36 1.9 181 19.6 102550 81
2005-08-30 10:11 51°16.915 2°41.306 1.5 185 19.9 102550 80
2005-08-30 10:12 51°16.893 2°41.252 2.1 170 20 102550 79
2005-08-30 10:13 51°16.87 2°41.197 2.5 174 19.9 102550 78
2005-08-30 10:14 51°16.848 2°41.142 2.7 165 19.7 102550 78
2005-08-30 10:15 51°16.829 2°41.082 2.4 161 19.6 102550 79
2005-08-30 10:16 51°16.81 2°41.024 2.7 168 19.6 102550 80
2005-08-30 10:17 51°16.79 2°40.968 2.6 172 19.5 102550 81
2005-08-30 10:18 51°16.767 2°40.916 2.6 174 19.4 102540 81
2005-08-30 10:19 51°16.745 2°40.864 2.2 169 19.4 102540 82
2005-08-30 10:20 51°16.722 2°40.812 2.9 173 19.4 102540 82
2005-08-30 10:21 51°16.7 2°40.759 2.4 180 19.3 102540 82
2005-08-30 10:22 51°16.679 2°40.703 2.8 172 19.3 102540 82
2005-08-30 10:23 51°16.66 2°40.646 3.3 165 19.3 102540 83
2005-08-30 10:24 51°16.641 2°40.588 3 166 19.3 102540 83
2005-08-30 10:25 51°16.622 2°40.53 3.6 169 19.2 102540 84
2005-08-30 10:26 51°16.602 2°40.475 2.8 163 19.2 102540 83
2005-08-30 10:27 51°16.579 2°40.421 2.8 167 19.2 102540 84
2005-08-30 10:28 51°16.557 2°40.366 2.9 162 19.2 102540 84
2005-08-30 10:29 51°16.534 2°40.311 3.1 166 19.2 102540 85
2005-08-30 10:30 51°16.512 2°40.257 3.4 167 19.2 102540 85
2005-08-30 10:31 51°16.491 2°40.201 2.9 155 19.2 102540 85
2005-08-30 10:32 51°16.472 2°40.147 3 159 19.2 102540 85
2005-08-30 10:33 51°16.455 2°40.092 3.7 157 19.2 102540 86
2005-08-30 10:34 51°16.444 2°40.032 3.6 144 19.1 102530 86
2005-08-30 10:35 51°16.439 2°39.962 3.8 135 19.1 102540 86
2005-08-30 10:36 51°16.443 2°39.906 4.6 128 19.1 102540 86
2005-08-30 10:37 51°16.454 2°39.862 4.9 119 19.1 102530 86
2005-08-30 10:38 51°16.469 2°39.829 4.7 116 19.1 102540 86
2005-08-30 10:39 51°16.485 2°39.805 5.2 115 19.1 102530 86
2005-08-30 10:40 51°16.486 2°39.731 1.4 207 19.1 102530 86
2005-08-30 10:41 51°16.387 2°39.754 6.2 308 19.2 102530 87
2005-08-30 10:42 51°16.242 2°39.907 7.8 226 19.3 102520 86
2005-08-30 10:43 51°16.096 2°40.085 7.2 43 19.4 102520 86
2005-08-30 10:44 51°15.943 2°40.265 6.8 313 19.4 102520 85
2005-08-30 10:45 51°15.853 2°40.378 5.8 286 19.4 102520 85
2005-08-30 10:46 51°15.809 2°40.443 5.9 278 19.5 102520 85
2005-08-30 10:47 51°15.786 2°40.492 5.5 282 19.5 102520 85
2005-08-30 10:48 51°15.774 2°40.533 5.7 284 19.6 102520 85
2005-08-30 10:49 51°15.769 2°40.568 5.9 284 19.6 102520 85
2005-08-30 10:50 51°15.768 2°40.597 6.3 280 19.6 102520 84
2005-08-30 10:51 51°15.768 2°40.624 5.7 282 19.7 102520 84
2005-08-30 10:52 51°15.77 2°40.646 5.6 288 19.7 102520 84
2005-08-30 10:53 51°15.773 2°40.667 5.4 290 19.7 102520 84
2005-08-30 10:54 51°15.777 2°40.684 5.9 296 19.7 102510 84
2005-08-30 10:55 51°15.78 2°40.699 5.6 292 19.8 102510 84
2005-08-30 10:56 51°15.784 2°40.713 5.7 294 19.8 102510 83
2005-08-30 10:57 51°15.788 2°40.726 5.7 290 19.8 102510 83
2005-08-30 10:58 51°15.791 2°40.736 5.8 287 19.8 102510 83
2005-08-30 10:59 51°15.794 2°40.745 5.3 281 19.8 102510 83
2005-08-30 11:00 51°15.796 2°40.774 6.5 322 19.8 102510 83
2005-08-30 11:01 51°15.835 2°40.844 7.8 31 19.8 102500 83
2005-08-30 11:02 51°15.915 2°40.829 8.1 59 19.6 102500 83
2005-08-30 11:03 51°15.975 2°40.782 7.6 85 19.4 102500 84
2005-08-30 11:04 51°16.01 2°40.716 5.8 106 19.3 102500 85
2005-08-30 11:05 51°16.032 2°40.608 5.1 118 19.3 102500 86
2005-08-30 11:06 51°16.041 2°40.568 5.1 141 19.3 102510 86
2005-08-30 11:07 51°16.047 2°40.552 5.6 138 19.2 102500 86
2005-08-30 11:08 51°16.053 2°40.538 5.4 133 19.2 102500 86
2005-08-30 11:09 51°16.06 2°40.527 5.8 132 19.2 102500 86
2005-08-30 11:10 51°16.068 2°40.517 5.8 125 19.2 102500 85
2005-08-30 11:11 51°16.077 2°40.511 5.6 121 19.2 102500 86
2005-08-30 11:12 51°16.088 2°40.483 4.5 143 19.2 102500 85
2005-08-30 11:13 51°16.018 2°40.402 4.7 275 19.3 102500 86
2005-08-30 11:14 51°15.878 2°40.467 6.6 292 19.4 102490 86
2005-08-30 11:15 51°15.731 2°40.559 7.8 294 19.5 102490 86
2005-08-30 11:16 51°15.611 2°40.693 6.8 300 19.6 102490 85
2005-08-30 11:17 51°15.559 2°40.781 6.6 298 19.6 102490 84
2005-08-30 11:18 51°15.548 2°40.819 6.4 298 19.7 102490 84
2005-08-30 11:19 51°15.553 2°40.826 5.6 293 19.7 102490 83
2005-08-30 11:20 51°15.557 2°40.831 6.2 286 19.8 102490 83
2005-08-30 11:21 51°15.56 2°40.835 5.4 278 19.8 102490 83
2005-08-30 11:22 51°15.564 2°40.837 7 264 19.8 102490 83
2005-08-30 11:23 51°15.567 2°40.839 5.3 259 19.8 102490 82
2005-08-30 11:24 51°15.569 2°40.841 4.6 261 19.7 102490 83
2005-08-30 11:25 51°15.573 2°40.843 4.1 257 19.7 102490 82
2005-08-30 11:26 51°15.576 2°40.845 5.8 268 19.6 102490 83
2005-08-30 11:27 51°15.579 2°40.846 6.2 267 19.6 102490 83
2005-08-30 11:28 51°15.582 2°40.847 5.6 264 19.7 102490 83
2005-08-30 11:29 51°15.579 2°40.856 4.3 259 19.7 102490 83
2005-08-30 11:30 51°15.546 2°40.859 4.7 218 19.6 102490 83
2005-08-30 11:31 51°15.511 2°40.823 2.6 186 19.5 102490 82
2005-08-30 11:32 51°15.493 2°40.78 4.1 178 19.6 102490 83
2005-08-30 11:33 51°15.476 2°40.739 3.2 201 19.6 102490 83
2005-08-30 11:34 51°15.457 2°40.702 5.1 161 19.7 102490 84
2005-08-30 11:35 51°15.46 2°40.69 6.7 149 19.6 102490 82
2005-08-30 11:36 51°15.467 2°40.704 6.2 146 19.6 102490 83
2005-08-30 11:37 51°15.471 2°40.722 6.7 149 19.5 102480 83
2005-08-30 11:38 51°15.476 2°40.735 6.6 155 19.4 102480 84
2005-08-30 11:39 51°15.481 2°40.719 6.1 138 19.4 102480 84
2005-08-30 11:40 51°15.485 2°40.719 6.1 135 19.4 102480 84
2005-08-30 11:41 51°15.491 2°40.712 5.7 118 19.4 102480 84
2005-08-30 11:42 51°15.492 2°40.72 5.8 120 19.4 102480 84
2005-08-30 11:43 51°15.492 2°40.73 6.2 97 19.4 102470 84
2005-08-30 11:44 51°15.491 2°40.734 6 104 19.5 102480 84
2005-08-30 11:45 51°15.488 2°40.746 6 118 19.5 102480 84
2005-08-30 11:46 51°15.485 2°40.763 5.8 125 19.5 102480 84
2005-08-30 11:47 51°15.486 2°40.776 6.6 44 19.5 102480 83
2005-08-30 11:48 51°15.488 2°40.784 6 132 19.5 102480 84
2005-08-30 11:49 51°15.523 2°40.727 8.8 56 19.5 102480 83
2005-08-30 11:50 51°15.671 2°40.791 12 9 19.5 102460 84
2005-08-30 11:51 51°15.841 2°40.944 11.6 16 19.6 102450 83
2005-08-30 11:52 51°16.02 2°41.096 13 15 19.6 102450 83
2005-08-30 11:53 51°16.222 2°41.262 13.4 23 19.6 102450 83
2005-08-30 11:54 51°16.449 2°41.275 12.5 27 19.6 102440 82
2005-08-30 11:55 51°16.664 2°41.404 12.5 16 19.7 102450 83
2005-08-30 11:56 51°16.866 2°41.58 13.7 15 19.7 102450 83
2005-08-30 11:57 51°17.058 2°41.779 13.5 13 19.6 102450 83
2005-08-30 11:58 51°17.249 2°41.977 14 15 19.6 102450 82
2005-08-30 11:59 51°17.442 2°42.179 12.5 16 19.6 102440 82
2005-08-30 12:00 51°17.636 2°42.386 12.6 15 19.6 102440 82
2005-08-30 12:01 51°17.826 2°42.593 13.1 17 19.7 102440 82
2005-08-30 12:02 51°18.012 2°42.806 13.2 13 19.7 102440 80
2005-08-30 12:03 51°18.18 2°42.994 10.4 16 19.8 102440 80
2005-08-30 12:04 51°18.277 2°43.086 8.7 19 19.8 102450 80
2005-08-30 12:05 51°18.337 2°43.16 7.8 10 19.9 102460 80
2005-08-30 12:06 51°18.386 2°43.215 7 26 19.9 102460 81
2005-08-30 12:07 51°18.431 2°43.259 7.7 14 19.9 102460 81
2005-08-30 12:08 51°18.46 2°43.297 6.8 8 19.8 102460 81
2005-08-30 12:09 51°18.481 2°43.321 6.2 23 19.8 102460 81
2005-08-30 12:10 51°18.493 2°43.327 6.4 57 19.8 102460 81
2005-08-30 12:11 51°18.507 2°43.325 6.5 87 19.7 102460 82
2005-08-30 12:12 51°18.526 2°43.301 5.8 118 19.6 102460 84
2005-08-30 12:13 51°18.538 2°43.279 6 115 19.6 102470 84
2005-08-30 12:14 51°18.549 2°43.259 5.4 117 19.6 102460 84
2005-08-30 12:15 51°18.543 2°43.193 2 203 19.6 102460 85
2005-08-30 12:16 51°18.542 2°43.182 6.5 226 19.6 102460 84
2005-08-30 12:17 51°18.524 2°43.199 7.4 295 19.7 102460 84
2005-08-30 12:18 51°18.51 2°43.25 7.2 296 19.7 102450 84
2005-08-30 12:19 51°18.491 2°43.29 7 270 19.8 102450 84
2005-08-30 12:20 51°18.475 2°43.315 6.8 281 19.9 102450 84
2005-08-30 12:21 51°18.463 2°43.357 6.6 229 19.9 102450 83
2005-08-30 12:22 51°18.459 2°43.397 6.1 315 19.9 102440 83
2005-08-30 12:23 51°18.457 2°43.426 6.3 313 20 102440 83
2005-08-30 12:24 51°18.456 2°43.437 6.7 305 20 102440 83
2005-08-30 12:25 51°18.454 2°43.442 6 295 20 102440 82
2005-08-30 12:26 51°18.452 2°43.444 6.2 284 20 102440 82
2005-08-30 12:27 51°18.449 2°43.444 7.1 276 20.1 102440 82
2005-08-30 12:28 51°18.446 2°43.442 5.3 267 20.1 102440 82
2005-08-30 12:29 51°18.444 2°43.441 5.2 266 20.1 102440 82
2005-08-30 12:30 51°18.443 2°43.438 6.6 270 20.1 102440 83
2005-08-30 12:31 51°18.441 2°43.434 5.3 264 20 102440 83
2005-08-30 12:32 51°18.439 2°43.43 4.8 261 20 102430 83
2005-08-30 12:33 51°18.437 2°43.424 6.6 268 19.9 102440 84
2005-08-30 12:34 51°18.435 2°43.418 6 265 20 102430 84
2005-08-30 12:35 51°18.426 2°43.441 6.6 230 20 102430 84
2005-08-30 12:36 51°18.438 2°43.506 6.8 10 19.9 102420 84
2005-08-30 12:37 51°18.491 2°43.535 7.8 55 19.9 102420 84
2005-08-30 12:38 51°18.535 2°43.499 6.6 99 19.7 102420 85
2005-08-30 12:39 51°18.558 2°43.459 7.3 101 19.6 102430 86
2005-08-30 12:40 51°18.576 2°43.427 6.3 103 19.6 102430 87
2005-08-30 12:41 51°18.59 2°43.401 6.5 108 19.6 102430 87
2005-08-30 12:42 51°18.602 2°43.381 6.4 104 19.6 102420 87
2005-08-30 12:43 51°18.612 2°43.365 6.2 101 19.6 102430 88
2005-08-30 12:44 51°18.621 2°43.353 6.7 94 19.6 102420 88
2005-08-30 12:45 51°18.628 2°43.342 6.8 92 19.6 102420 88
2005-08-30 12:46 51°18.634 2°43.332 6 96 19.5 102420 88
2005-08-30 12:47 51°18.637 2°43.322 6.4 96 19.5 102420 88
2005-08-30 12:48 51°18.645 2°43.308 5.8 95 19.5 102410 88
2005-08-30 12:49 51°18.663 2°43.271 5.8 130 19.5 102420 89
2005-08-30 12:50 51°18.664 2°43.215 4.9 171 19.5 102420 88
2005-08-30 12:51 51°18.64 2°43.178 5.5 233 19.6 102430 88
2005-08-30 12:52 51°18.614 2°43.168 5.5 242 19.6 102420 88
2005-08-30 12:53 51°18.595 2°43.167 4.4 254 19.7 102420 88
2005-08-30 12:54 51°18.581 2°43.168 4.3 258 19.7 102420 87
2005-08-30 12:55 51°18.57 2°43.17 5.9 262 19.7 102420 87
2005-08-30 12:56 51°18.561 2°43.173 7.1 266 19.8 102420 87
2005-08-30 12:57 51°18.554 2°43.176 7.6 268 19.8 102420 87
2005-08-30 12:58 51°18.548 2°43.177 6.9 274 19.8 102420 87
2005-08-30 12:59 51°18.544 2°43.176 6.6 277 19.8 102410 87
2005-08-30 13:00 51°18.54 2°43.175 6.6 284 19.9 102410 86
2005-08-30 13:01 51°18.536 2°43.17 5.7 289 19.9 102410 86
2005-08-30 13:02 51°18.532 2°43.166 6 285 19.9 102410 86
2005-08-30 13:03 51°18.528 2°43.16 6 289 19.9 102410 86
2005-08-30 13:04 51°18.524 2°43.154 6.5 282 20 102410 86
2005-08-30 13:05 51°18.52 2°43.146 6.1 281 20 102410 86
2005-08-30 13:06 51°18.515 2°43.138 6.3 277 20.1 102410 86
2005-08-30 13:07 51°18.51 2°43.129 6.2 275 20.1 102410 86
2005-08-30 13:08 51°18.506 2°43.119 6.9 268 20.2 102410 85
2005-08-30 13:09 51°18.501 2°43.109 6.1 265 20.2 102400 85
2005-08-30 13:10 51°18.497 2°43.098 5.5 268 20.2 102410 85
2005-08-30 13:11 51°18.491 2°43.087 6.3 268 20.2 102410 84
2005-08-30 13:12 51°18.486 2°43.076 6.7 268 20.3 102400 84
2005-08-30 13:13 51°18.482 2°43.064 6.5 267 20.2 102400 84
2005-08-30 13:14 51°18.478 2°43.053 7.3 266 20.2 102400 84
2005-08-30 13:15 51°18.473 2°43.041 7 266 20.2 102400 84
2005-08-30 13:16 51°18.468 2°43.028 7.5 270 20.2 102400 84
2005-08-30 13:17 51°18.463 2°43.017 6.4 264 20.2 102410 84
2005-08-30 13:18 51°18.441 2°43.032 6.8 297 20.2 102400 84
2005-08-30 13:19 51°18.336 2°43.165 8.3 311 20.2 102390 84
2005-08-30 13:20 51°18.172 2°43.355 9 42 20.2 102380 84
2005-08-30 13:21 51°18.002 2°43.558 8.7 227 20.2 102380 84
2005-08-30 13:22 51°17.832 2°43.763 9.3 41 20.1 102380 84
2005-08-30 13:23 51°17.66 2°43.968 9.8 228 20.1 102380 84
2005-08-30 13:24 51°17.488 2°44.178 9.2 315 20.1 102370 84
2005-08-30 13:25 51°17.317 2°44.389 9 229 20.1 102370 84
2005-08-30 13:26 51°17.15 2°44.603 9.1 313 20.1 102370 84
2005-08-30 13:27 51°16.976 2°44.807 9.5 42 20.1 102370 84
2005-08-30 13:28 51°16.803 2°45.008 9 315 20.1 102370 84
2005-08-30 13:29 51°16.629 2°45.209 8.7 316 20.2 102370 84
2005-08-30 13:30 51°16.457 2°45.415 10.5 41 20.2 102370 84
2005-08-30 13:31 51°16.317 2°45.674 11.1 320 20.2 102360 84
2005-08-30 13:32 51°16.188 2°45.941 10.8 323 20.2 102360 83
2005-08-30 13:33 51°16.104 2°46.255 11.6 331 20.2 102350 83
2005-08-30 13:34 51°16.036 2°46.58 11.7 328 20.2 102350 83
2005-08-30 13:35 51°15.965 2°46.904 11.6 331 20.2 102350 83
2005-08-30 13:36 51°15.891 2°47.226 12 328 20.2 102350 84
2005-08-30 13:37 51°15.816 2°47.541 12.3 329 20.1 102350 84
2005-08-30 13:38 51°15.741 2°47.856 12.3 327 20.1 102340 83
2005-08-30 13:39 51°15.665 2°48.173 12.7 329 20.1 102340 83
2005-08-30 13:40 51°15.589 2°48.484 11.4 327 20.2 102340 83
2005-08-30 13:41 51°15.512 2°48.8 12.2 328 20.2 102340 82
2005-08-30 13:42 51°15.432 2°49.116 11.4 330 20.2 102340 83
2005-08-30 13:43 51°15.351 2°49.431 11.6 327 20.2 102340 83
2005-08-30 13:44 51°15.272 2°49.741 12.4 325 20.2 102330 82
2005-08-30 13:45 51°15.191 2°50.053 11.1 326 20.3 102330 82
2005-08-30 13:46 51°15.11 2°50.363 11.5 326 20.2 102330 83
2005-08-30 13:47 51°15.035 2°50.675 12.1 327 20.2 102330 83
2005-08-30 13:48 51°14.963 2°50.988 12 328 20.2 102330 83
2005-08-30 13:49 51°14.908 2°51.306 12.1 331 20.3 102330 83
2005-08-30 13:50 51°14.855 2°51.629 11.9 332 20.3 102330 82
2005-08-30 13:51 51°14.801 2°51.948 11.8 331 20.3 102320 82
2005-08-30 13:52 51°14.756 2°52.268 11.9 333 20.3 102320 82
2005-08-30 13:53 51°14.697 2°52.584 11.7 333 20.4 102330 81
2005-08-30 13:54 51°14.645 2°52.907 11.6 332 20.4 102320 81
2005-08-30 13:55 51°14.595 2°53.225 12.8 330 20.4 102320 81
2005-08-30 13:56 51°14.545 2°53.537 12.5 326 20.4 102320 81
2005-08-30 13:57 51°14.506 2°53.731 10.3 321 20.5 102320 80
2005-08-30 13:58 51°14.494 2°53.836 8.8 327 20.5 102330 80
2005-08-30 13:59 51°14.494 2°53.888 7.9 329 20.6 102330 80
2005-08-30 14:00 51°14.492 2°53.916 7.9 330 20.6 102330 80
2005-08-30 14:01 51°14.487 2°53.928 6.9 327 20.6 102330 79
2005-08-30 14:02 51°14.481 2°53.931 7.3 324 20.7 102330 79
2005-08-30 14:03 51°14.473 2°53.926 7.7 327 20.7 102330 79
2005-08-30 14:04 51°14.463 2°53.918 7.2 228 20.7 102330 79
2005-08-30 14:05 51°14.451 2°53.905 6.8 307 20.8 102330 79
2005-08-30 14:06 51°14.439 2°53.892 7.1 298 20.8 102320 79
2005-08-30 14:07 51°14.426 2°53.877 7.2 290 20.9 102330 79
2005-08-30 14:08 51°14.413 2°53.862 7.9 291 20.9 102320 78
2005-08-30 14:09 51°14.4 2°53.845 7.5 290 21 102320 78
2005-08-30 14:10 51°14.384 2°53.845 7.3 317 21 102320 78
2005-08-30 14:11 51°14.374 2°53.948 9.7 334 21 102310 77
2005-08-30 14:12 51°14.367 2°54.099 9.7 338 21 102310 77
2005-08-30 14:13 51°14.367 2°54.346 11.5 348 21 102310 77
2005-08-30 14:14 51°14.375 2°54.626 11.4 339 21 102300 78
2005-08-30 14:15 51°14.385 2°54.894 11.2 336 21 102310 77
2005-08-30 14:16 51°14.335 2°55.132 8.1 328 21 102300 77
2005-08-30 14:17 51°14.207 2°55.342 6 315 21 102310 78
2005-08-30 14:18 51°14.077 2°55.45 7 273 21.1 102320 78
2005-08-30 14:19 51°13.955 2°55.541 5.5 313 21.2 102320 78
2005-08-30 14:20 51°13.819 2°55.643 3.6 321 21.4 102320 77
2005-08-30 14:21 51°13.718 2°55.771 3.9 315 21.7 102320 76
2005-08-30 14:22 51°13.662 2°55.891 5 335 22.1 102310 73
2005-08-30 14:23 51°13.624 2°55.993 3.3 342 22.7 102310 66
2005-08-30 14:24 51°13.608 2°56.062 3.3 341 23.3 102310 62
2005-08-30 14:25 51°13.598 2°56.094 1.9 345 24 102300 63
2005-08-30 14:26 51°13.597 2°56.094 4.5 303 24.5 102310 55